Location: Melara
(45.0500°N, 11.1833°E)
Time: 11:31:25
(UTC+00:00)

UKube-1 - Pass Details

Date: 04 June 2024
Orbit: 582 x 590 km, 98.3° (Epoch: 16 June)

Event Time Altitude Azimuth Distance (km) Brightness Sun altitude
Rises 00:38:30 0° 12° (NNE) 2,815 ? -19.8°
Reaches altitude 10° 00:40:40 10° 10° (N) 1,910 ? -19.6°
Maximum altitude 00:44:48 76° 286° (WNW) 606 ? -19.4°
Enters shadow 00:45:51 48° 213° (SSW) 762 ? -19.3°
